Forside
METAR-TAF:

METAR-TAF

Lufthavne :

Aitkin Municipal Airport (Steve Kurtz Field)

Aitkin, Minnesota, USA

Breddekreds: 46-33N, længdekreds: 093-41W, højde: 367 m

Aktuelle vejr

Denne rapport blev lavet for 27 minutter siden, kl. 09:15 UTC
Vind stille
Temperatur 10°C
Fugtighed 46%
Tryk 1026 hPa
Sigt: 16.1 km
Overskyet i en højde af 11000 ft

METAR: KAIT 130915Z AUTO 00000KT 10SM OVC110 10/M01 A3030 RMK AO2

Tid: 04:42 (09:42 UTC)


TAF: fraværende

Vejrobservationer og prognoser fra mere end 4000 lufthavne (METAR og TAF).

De gule og røde prikker repræsenterer de meteorologiske stationer.

Flyt musen over at se navnet på stationen.

Så klik over at se vejr observationer og prognoser.

At skifte det kort: Klik på de grønne knapper med et sort kors for at zoome ind; på den grønne knap med en bindestreg for at zoome ud; eller på de grønne pile for tilstødende kort.


METAR-TAF: